TimeMDT,TemperatureF,Dew PointF,Humidity,Sea Level PressureIn,VisibilityMPH,Wind Direction,Wind SpeedMPH,Gust SpeedMPH,PrecipitationIn,Events,Conditions,WindDirDegrees,DateUTC
12:53 AM,66.0,64.0,93,29.74,10.0,South,5.8,-,0.03,Rain,Light Rain,170,2013-09-14 06:53:00
1:53 AM,64.9,64.0,97,29.73,10.0,SSE,4.6,-,0.00,,Overcast,160,2013-09-14 07:53:00
2:53 AM,64.9,62.1,90,29.73,10.0,WNW,10.4,-,N/A,,Overcast,290,2013-09-14 08:53:00
3:53 AM,64.9,62.1,90,29.73,10.0,WSW,5.8,-,N/A,,Overcast,240,2013-09-14 09:53:00
4:53 AM,64.0,61.0,90,29.73,10.0,WSW,5.8,-,N/A,,Overcast,250,2013-09-14 10:53:00
5:53 AM,64.0,61.0,90,29.73,10.0,SW,3.5,-,N/A,,Overcast,220,2013-09-14 11:53:00
6:53 AM,64.0,61.0,90,29.75,10.0,Calm,Calm,-,N/A,,Mostly Cloudy,0,2013-09-14 12:53:00
7:53 AM,64.0,61.0,90,29.77,10.0,West,4.6,-,N/A,,Overcast,270,2013-09-14 13:53:00
8:53 AM,66.0,61.0,84,29.78,10.0,West,4.6,-,N/A,,Partly Cloudy,260,2013-09-14 14:53:00
9:53 AM,68.0,61.0,78,29.79,10.0,WNW,6.9,-,N/A,,Partly Cloudy,290,2013-09-14 15:53:00
10:53 AM,71.1,61.0,70,29.80,10.0,WNW,5.8,-,N/A,,Clear,300,2013-09-14 16:53:00
11:53 AM,72.0,60.1,66,29.81,10.0,Calm,Calm,-,N/A,,Mostly Cloudy,0,2013-09-14 17:53:00
12:53 PM,75.0,59.0,57,29.83,10.0,Calm,Calm,-,N/A,,Partly Cloudy,0,2013-09-14 18:53:00
1:53 PM,77.0,61.0,58,29.83,10.0,Calm,Calm,-,N/A,,Partly Cloudy,0,2013-09-14 19:53:00
2:22 PM,75.2,62.6,65,29.89,10.0,Variable,4.6,-,N/A,Thunderstorm,Mostly Cloudy,0,2013-09-14 20:22:00
2:49 PM,66.2,62.6,88,29.92,1.5,North,21.9,26.5,0.09,Rain-Thunderstorm,Heavy Thunderstorms and Rain,350,2013-09-14 20:49:00
2:53 PM,64.0,61.0,90,29.89,0.8,NNW,15.0,26.5,0.19,Rain-Thunderstorm,Heavy Thunderstorms and Rain,340,2013-09-14 20:53:00
2:56 PM,64.4,60.8,88,29.93,0.8,NNW,15.0,26.5,0.05,Rain-Thunderstorm,Heavy Thunderstorms and Rain,340,2013-09-14 20:56:00
3:02 PM,64.4,60.8,88,29.92,1.0,NE,8.1,20.7,0.16,Rain-Thunderstorm,Heavy Thunderstorms and Rain,50,2013-09-14 21:02:00
3:10 PM,64.4,62.6,94,29.93,4.0,ENE,6.9,-,0.16,Rain-Thunderstorm,Light Thunderstorms and Rain,60,2013-09-14 21:10:00
3:23 PM,66.2,62.6,88,29.93,10.0,NE,6.9,-,0.16,Rain-Thunderstorm,Light Rain,40,2013-09-14 21:23:00
3:48 PM,66.2,62.6,88,29.93,10.0,North,9.2,-,0.16,,Partly Cloudy,350,2013-09-14 21:48:00
3:53 PM,66.9,63.0,87,29.90,10.0,North,10.4,-,0.16,,Partly Cloudy,350,2013-09-14 21:53:00
4:53 PM,70.0,64.0,81,29.91,10.0,North,9.2,-,N/A,,Mostly Cloudy,10,2013-09-14 22:53:00
5:53 PM,72.0,64.0,76,29.93,10.0,Calm,Calm,-,N/A,,Clear,0,2013-09-14 23:53:00
6:53 PM,71.1,64.0,78,29.94,10.0,ENE,4.6,-,N/A,,Clear,60,2013-09-15 00:53:00
7:53 PM,69.1,57.0,65,29.99,10.0,NNE,15.0,-,N/A,,Partly Cloudy,30,2013-09-15 01:53:00
8:53 PM,64.9,54.0,68,30.02,10.0,NNE,11.5,-,N/A,,Clear,20,2013-09-15 02:53:00
9:53 PM,64.0,54.0,70,30.05,10.0,NNE,9.2,-,N/A,,Partly Cloudy,20,2013-09-15 03:53:00
10:53 PM,63.0,52.0,67,30.06,10.0,NE,15.0,-,N/A,,Scattered Clouds,40,2013-09-15 04:53:00
11:53 PM,62.1,52.0,70,30.07,10.0,NE,15.0,-,N/A,,Overcast,40,2013-09-15 05:53:00